Theta_e
341 345 350 353 352 352 352 351 348 345 346 347 351 353 353 353 352 351 351 353 354 353 353 352 352 351 352 351 351 351 350 350 349 349 349 348 349 349 348 347 347 347 347 346 345 343 344 343 343 343 343 343 344 345 345 345 346 346 346 345 343 342 343 343 345 347 346 346 346 345 345 345 344 344 345 345 345 343 342 341 341 337 337 338 338
341 346 348 350 352 352 352 350 348 346 346 347 347 350 353 351 349 351 353 353 352 353 352 352 351 351 350 350 350 350 350 349 349 349 348 348 348 348 347 347 345 344 344 344 344 344 342 343 341 340 342 342 343 342 341 342 344 344 346 346 345 343 343 343 344 344 345 346 344 344 343 342 342 343 342 343 343 341 341 341 340 335 335 340 339
345 346 348 349 352 350 351 349 348 347 346 345 346 347 349 351 352 352 352 352 352 352 351 351 350 350 351 351 350 349 349 349 347 346 346 346 346 346 347 347 344 344 343 343 343 343 343 343 343 341 341 342 341 341 341 342 343 345 345 345 345 343 342 343 343 343 344 344 344 344 342 341 340 341 344 343 343 341 339 338 339 340 334 337 338
344 346 348 349 351 351 350 349 348 346 345 345 343 346 347 349 350 351 351 351 350 351 351 350 350 350 349 349 349 349 349 347 346 346 346 346 347 346 346 345 343 343 344 344 344 343 342 342 341 343 343 342 342 341 340 340 341 342 343 343 344 343 342 341 342 342 344 344 344 341 337 334 336 339 341 342 342 340 339 338 336 335 335 335 336
344 346 348 349 349 351 350 348 346 345 344 344 344 345 346 347 346 344 346 350 350 350 351 349 350 348 348 350 349 348 348 348 346 345 345 345 346 346 346 344 344 344 343 344 344 342 341 342 343 343 343 342 342 341 340 340 342 342 342 342 342 342 343 342 341 342 342 343 343 339 334 335 336 341 341 342 342 341 341 340 340 340 341 340 339
345 346 349 349 348 348 348 347 346 345 344 344 345 345 345 346 345 344 343 347 349 349 349 350 349 349 350 350 350 348 347 346 346 346 345 345 345 345 345 345 344 344 343 345 344 344 345 345 345 345 345 345 343 342 340 339 341 343 341 342 342 342 342 343 343 342 343 341 344 344 335 336 336 338 342 343 343 342 341 340 339 339 340 340 339
345 346 348 346 346 347 347 346 345 345 345 344 345 345 345 346 345 345 346 348 349 349 349 350 350 350 350 350 349 348 348 347 346 344 344 344 344 344 345 344 343 343 346 345 344 345 345 344 345 345 345 345 344 343 342 340 339 339 340 340 341 340 340 341 341 342 343 344 343 336 335 336 336 337 342 342 342 342 341 341 340 340 340 340 339
345 346 344 344 346 346 347 345 344 345 346 346 345 345 345 346 346 345 345 348 348 349 349 350 350 351 350 349 348 348 348 347 347 346 344 343 343 344 344 344 344 344 345 345 345 345 344 345 345 346 346 345 344 344 342 341 340 340 339 339 340 339 338 338 340 342 342 341 338 336 335 336 336 338 342 341 341 342 340 339 339 338 339 338 336
340 342 343 345 345 346 345 344 344 345 346 345 346 345 345 345 346 346 347 348 349 349 350 350 350 351 350 349 348 348 348 347 346 344 344 344 344 344 345 345 345 344 345 345 345 345 345 345 346 346 346 345 344 344 343 340 340 340 339 339 339 340 339 339 338 341 339 341 337 336 336 335 335 334 336 338 336 338 339 338 338 337 336 334 333
340 343 344 343 344 346 345 345 344 344 345 346 346 345 345 345 346 346 346 347 348 348 349 350 350 350 350 349 349 348 348 347 347 345 345 346 346 346 345 345 345 344 345 345 345 344 345 345 345 345 345 345 344 344 343 341 340 339 339 339 338 340 338 339 341 340 338 336 336 337 337 340 334 333 335 338 340 342 339 339 335 334 333 332 333
339 342 343 343 344 345 345 344 345 345 345 346 346 345 345 345 346 346 345 345 347 349 349 350 350 349 350 349 348 348 348 348 346 346 346 346 346 345 345 345 344 344 344 345 345 345 345 346 345 344 343 343 343 344 343 342 340 339 339 338 339 339 335 340 340 334 337 335 335 336 338 342 332 332 336 338 340 340 339 338 337 335 333 332 334
341 343 343 343 347 346 344 343 344 345 346 346 346 347 347 346 345 345 345 345 346 348 349 349 349 350 350 349 348 347 347 346 346 346 345 346 346 345 344 344 344 344 345 346 345 344 345 345 345 345 344 343 342 342 343 342 342 341 340 341 340 340 340 342 341 336 331 330 333 333 331 331 331 332 336 339 340 340 338 337 335 334 332 334 334
341 342 343 343 344 344 343 344 344 345 346 346 346 346 345 345 346 345 345 346 346 348 348 349 349 350 349 349 349 348 346 345 345 345 345 345 345 345 344 344 345 345 345 344 343 344 345 346 345 345 345 344 344 342 343 342 342 341 341 341 341 341 341 342 339 333 329 330 333 333 332 332 332 336 336 339 339 340 340 338 336 335 334 334 333
340 342 343 343 343 345 343 343 343 344 344 344 344 344 343 343 343 344 346 347 347 347 348 349 349 349 349 348 348 348 347 345 345 345 345 345 344 344 344 344 345 344 344 344 344 344 345 345 346 346 346 346 344 344 343 343 342 342 342 342 342 341 342 340 339 329 330 333 335 334 333 334 334 338 338 338 339 339 340 338 337 337 335 334 333
340 342 343 343 342 342 344 342 341 342 343 343 343 342 341 341 339 338 339 343 347 346 348 347 348 349 349 349 348 348 348 347 345 345 346 346 345 345 344 344 344 344 343 343 344 344 345 345 345 345 345 346 346 345 344 344 343 342 342 342 343 342 341 337 337 327 329 331 336 335 335 335 339 339 339 339 340 340 339 337 335 334 332 333 332
343 342 343 342 342 342 342 343 343 343 342 341 341 341 340 340 340 340 340 341 345 348 345 344 347 348 349 349 348 348 348 347 346 344 344 345 345 345 344 344 344 343 343 342 342 344 345 345 344 344 343 345 346 346 345 345 343 343 343 342 342 343 342 341 338 337 330 332 333 335 335 337 340 339 338 339 340 338 336 335 334 334 331 331 332
343 343 341 341 341 341 341 341 342 343 342 342 342 341 340 340 341 340 340 343 343 341 343 341 342 346 348 348 348 348 347 347 347 347 344 343 344 344 343 343 343 343 343 342 341 342 344 345 345 344 344 344 344 346 346 344 344 343 344 342 343 343 343 344 339 332 332 332 334 334 334 337 339 339 337 337 336 335 334 334 334 334 332 330 330
343 343 341 341 341 341 341 341 341 341 341 341 342 341 341 340 340 341 342 343 342 344 343 343 345 346 346 347 347 347 347 347 347 346 346 344 343 342 342 342 342 342 342 342 341 341 343 344 345 344 343 343 343 344 344 344 343 343 344 343 344 343 344 344 339 332 329 334 333 336 335 339 340 337 336 336 335 334 334 333 333 333 332 332 330
341 341 341 342 341 341 341 342 343 342 342 342 342 341 341 340 340 342 342 342 343 344 346 344 344 345 346 347 347 347 347 347 347 346 346 346 344 343 342 342 342 342 342 342 341 341 341 343 344 344 344 343 343 343 343 343 343 343 344 343 344 344 344 342 338 330 331 332 334 333 335 341 339 337 337 336 333 335 334 334 333 332 332 332 332
341 341 341 342 341 341 340 341 341 341 342 343 343 342 342 342 343 344 342 343 343 343 344 344 343 345 346 346 346 347 346 345 345 345 346 346 346 344 344 343 342 342 342 342 341 341 341 342 343 344 344 344 344 344 342 343 342 344 343 343 344 344 341 339 339 334 331 335 336 333 338 338 336 335 336 335 332 335 334 333 332 333 332 333 332
339 340 341 341 341 340 339 339 339 340 342 342 343 342 342 344 344 342 342 342 341 341 342 341 343 345 345 346 346 346 347 345 343 345 346 345 345 346 345 345 344 343 342 342 341 341 341 341 342 343 343 343 344 344 344 344 343 343 344 344 345 341 339 340 338 327 324 335 336 335 339 338 336 335 335 336 333 333 334 334 331 331 333 333 333
334 337 340 341 339 339 340 341 340 340 343 343 342 341 342 343 341 342 342 341 341 341 341 342 342 340 344 344 347 345 344 343 342 346 347 345 346 346 346 346 345 345 343 342 342 341 341 341 342 342 343 342 343 341 342 344 345 346 344 344 342 340 340 338 336 335 330 329 333 336 339 338 337 336 335 336 335 333 333 334 333 333 333 332 332
332 333 335 338 337 335 337 338 339 340 340 341 342 341 339 339 339 339 340 340 343 343 341 340 340 336 337 344 347 344 344 343 342 344 344 345 346 347 347 346 346 345 345 343 343 343 342 342 342 341 343 342 340 337 338 339 341 346 345 344 341 341 342 339 338 334 331 331 331 339 338 337 337 336 335 336 336 334 335 334 333 333 333 333 333
330 334 335 338 338 336 335 337 337 338 339 340 340 340 340 338 338 339 338 338 341 342 341 340 340 339 338 342 344 344 343 341 347 347 348 347 346 348 348 347 347 346 346 345 344 344 343 343 342 342 342 339 334 334 338 348 339 341 343 343 342 343 342 343 340 339 332 334 333 338 336 335 334 334 335 335 337 335 336 335 334 333 333 333 333
331 333 334 337 336 337 337 337 337 338 338 339 339 340 340 339 339 339 340 342 340 340 340 339 341 338 340 339 339 341 342 343 345 347 344 346 346 345 346 346 346 345 347 344 344 343 343 341 337 340 336 333 332 333 344 343 343 341 342 344 343 342 340 344 344 340 335 332 334 338 337 335 334 334 335 334 334 336 336 335 334 334 334 333 334
334 330 334 334 333 335 336 337 338 337 337 338 340 342 341 339 340 340 341 343 343 341 339 338 338 339 339 339 342 339 338 338 342 342 343 346 344 343 344 345 344 344 346 345 342 343 342 342 340 336 332 333 333 335 340 340 337 341 343 343 343 342 343 347 343 345 342 334 335 341 339 336 336 335 335 334 333 335 335 336 335 335 335 333 333
334 334 337 338 338 335 335 336 333 336 335 335 340 342 341 341 341 340 341 341 342 339 340 340 338 338 337 338 337 338 337 338 339 343 345 343 345 349 349 348 344 346 349 348 346 345 344 341 339 339 337 337 338 340 340 340 338 338 344 341 344 343 345 343 344 343 342 338 339 342 339 338 339 337 336 336 335 334 334 336 336 336 335 335 334
335 337 337 339 341 341 341 338 334 335 336 339 339 339 341 343 341 344 345 343 339 338 339 339 340 337 335 333 338 333 333 333 336 340 340 345 346 344 344 345 346 346 346 344 342 344 343 340 338 337 337 337 338 339 342 340 339 340 339 340 341 344 346 346 343 343 340 343 338 341 340 339 340 337 338 337 337 336 336 336 336 336 336 336 335
334 336 337 338 340 342 342 342 337 335 338 339 339 340 341 339 339 340 342 343 340 340 338 338 337 338 339 337 346 348 347 347 345 344 341 342 344 342 342 345 346 343 343 340 343 341 338 340 337 337 336 337 337 337 337 338 338 341 339 341 341 344 345 345 343 342 344 342 342 341 343 341 340 338 339 338 338 338 337 337 337 336 336 336 336
335 337 337 337 340 343 343 341 342 335 334 338 338 337 338 337 337 339 340 341 339 340 337 334 336 334 337 350 355 352 349 349 349 349 346 348 349 344 341 338 338 340 339 340 341 340 335 338 337 339 336 341 336 348 341 340 339 342 345 341 342 345 346 344 345 342 341 344 346 340 344 342 341 341 340 339 339 339 338 338 338 337 336 336 337
334 336 335 336 339 341 341 342 343 342 336 332 333 334 335 335 337 339 337 337 337 338 335 333 336 341 348 352 347 351 356 352 348 347 348 348 351 352 347 345 338 338 338 336 338 338 338 339 340 339 342 341 340 344 341 341 339 337 345 342 341 344 341 342 345 344 341 342 342 341 339 342 343 342 341 341 340 340 340 339 339 339 338 338 337
332 334 334 336 336 337 337 339 341 342 342 339 337 336 335 335 336 335 336 338 339 336 335 341 346 346 348 348 348 350 346 351 349 348 344 344 345 345 347 347 348 346 341 340 337 335 337 339 340 341 344 346 342 341 345 340 339 338 339 341 344 343 342 345 341 344 343 342 342 342 339 336 343 344 342 341 340 341 341 341 341 341 340 340 339
332 334 335 336 335 335 335 337 339 339 339 338 340 340 341 341 340 336 339 341 342 344 343 340 342 343 343 347 345 345 346 346 348 348 346 343 343 345 346 346 347 347 349 345 344 344 343 341 340 341 342 339 343 340 337 343 339 337 338 340 341 340 339 342 343 344 341 340 342 341 342 341 338 343 343 342 341 341 341 342 342 342 342 342 341
331 333 334 333 334 335 335 335 336 336 336 337 338 338 339 344 337 338 338 334 337 341 338 343 343 344 344 340 343 339 339 344 342 342 344 341 342 342 343 345 345 348 351 349 344 344 341 339 338 339 338 338 338 337 339 336 337 339 339 340 340 339 340 340 341 341 343 341 340 340 340 342 341 337 339 343 342 341 342 342 342 342 342 342 342
332 332 332 331 332 332 334 332 335 336 336 335 336 337 335 338 336 337 338 334 335 336 338 339 334 342 337 342 339 339 339 338 340 341 341 341 338 339 340 340 346 349 347 345 344 346 341 338 337 334 335 340 335 335 334 335 337 334 337 337 337 339 340 339 341 342 342 342 339 337 340 344 341 343 337 336 341 342 343 342 342 342 342 342 343
334 334 334 334 333 334 335 334 335 335 337 338 339 336 338 338 339 330 336 338 336 336 339 331 338 333 332 335 335 337 339 339 339 339 340 337 336 336 337 339 344 348 347 345 346 342 341 340 341 338 335 333 333 331 334 334 337 336 336 339 341 340 340 339 340 339 338 340 340 337 340 341 340 341 343 339 336 338 342 342 343 343 343 343 343
335 334 333 333 333 333 335 335 334 335 335 335 331 336 337 336 337 338 335 340 337 333 335 337 336 337 335 334 336 339 337 339 338 339 339 337 334 333 335 338 340 341 344 346 342 341 340 340 345 345 343 336 334 332 331 333 335 338 339 338 340 340 338 338 339 337 338 338 338 341 340 339 339 346 342 338 341 337 339 342 342 343 342 343 342
335 335 335 334 333 334 335 336 334 336 338 335 332 340 337 334 335 339 334 339 335 335 335 340 337 337 335 337 336 337 338 337 338 338 339 338 336 335 336 339 339 340 340 340 340 339 340 344 341 343 342 338 336 335 333 333 334 336 340 336 337 341 341 341 341 341 337 336 337 338 338 341 340 337 339 338 339 342 340 340 341 342 342 342 342
333 334 335 335 335 335 334 334 335 333 334 336 337 331 339 339 335 339 338 335 342 335 336 333 337 333 335 336 337 337 338 336 336 339 339 337 336 336 336 337 339 340 338 338 337 337 338 338 337 334 338 336 336 336 335 336 336 336 336 337 341 340 342 342 342 340 338 337 335 336 336 335 336 337 336 336 338 340 342 341 338 337 337 341 341
333 334 334 334 333 333 333 332 334 339 336 334 333 332 332 336 333 341 333 333 338 335 337 332 336 331 333 334 335 335 337 338 334 338 339 340 335 336 336 338 336 337 337 336 335 333 334 334 335 333 332 333 334 334 334 333 335 336 337 337 337 338 337 337 338 337 336 336 336 336 336 335 334 335 336 336 337 337 338 342 341 339 337 339 340
332 332 333 333 332 330 331 330 332 335 336 332 328 327 324 327 336 335 336 335 337 340 335 335 332 334 335 336 334 337 335 336 337 338 339 336 340 338 336 336 336 336 335 335 335 334 335 335 335 334 332 330 332 333 336 335 332 330 334 334 334 337 336 336 335 336 336 337 338 336 335 338 338 337 338 337 338 337 337 340 342 340 339 339 340
330 332 331 331 333 333 331 331 335 335 333 335 337 329 330 328 332 326 327 328 328 331 330 333 335 338 338 340 340 335 334 334 334 334 334 338 334 335 336 336 337 336 337 336 335 337 335 333 333 332 334 330 330 331 334 333 330 326 324 325 326 329 331 332 335 336 337 340 337 337 338 340 339 340 344 341 337 338 336 337 339 338 343 340 339
331 331 332 332 331 331 331 332 332 334 334 337 331 332 334 334 333 332 329 335 332 336 334 333 339 340 340 335 336 336 334 334 334 334 333 333 334 334 334 336 338 339 337 335 335 334 333 332 332 330 329 332 330 333 333 336 327 328 327 323 320 321 330 341 339 337 339 339 339 337 339 339 337 341 342 341 338 339 338 336 336 335 334 334 335
329 330 331 330 329 331 331 332 334 333 333 331 333 335 333 333 338 335 337 331 332 334 336 335 332 336 333 336 334 336 334 334 333 333 335 335 335 334 334 334 333 333 334 333 332 330 333 333 331 330 330 326 325 328 331 332 330 327 320 321 320 318 313 321 322 337 338 338 338 337 337 337 337 339 342 338 335 334 335 334 334 334 333 333 335
329 329 330 329 328 330 331 331 331 333 332 332 331 333 339 336 337 335 336 337 333 333 329 332 332 330 332 333 334 334 336 334 334 333 333 334 336 335 334 333 334 333 333 331 329 329 329 330 331 331 330 327 325 328 330 332 330 334 327 322 319 317 316 321 322 323 332 330 331 334 338 336 332 337 337 337 334 333 333 333 334 333 333 335 336
328 330 330 330 331 329 330 331 334 331 332 330 334 334 333 331 333 330 329 332 327 326 326 327 328 330 330 334 335 334 332 333 332 332 332 333 333 333 334 332 334 332 333 332 331 331 330 329 328 329 329 331 328 326 325 331 334 332 335 331 329 321 319 322 321 316 324 327 330 328 327 331 333 335 335 332 330 332 334 333 334 334 334 335 337
328 330 331 330 330 328 329 331 331 333 332 333 332 339 334 332 330 329 329 327 328 327 334 332 332 335 334 334 335 336 332 332 333 330 331 332 332 332 333 332 331 334 334 333 330 330 329 329 330 330 329 329 330 326 326 326 328 331 329 331 332 330 327 323 319 320 316 323 326 327 330 331 335 334 331 330 330 332 334 334 334 335 334 334 335
330 329 330 330 327 327 329 330 332 331 332 332 333 338 334 332 330 329 332 328 328 328 332 332 332 334 334 332 333 335 333 332 331 329 329 331 331 330 331 333 331 331 331 331 330 332 331 332 332 332 331 331 330 328 327 327 324 324 329 328 328 329 328 329 327 321 319 316 319 326 329 331 334 331 329 330 331 334 334 335 334 333 332 332 332
329 328 328 328 329 329 329 331 331 331 332 331 330 331 333 336 331 336 333 329 331 331 332 328 331 330 332 333 332 331 333 332 330 330 329 330 331 330 330 330 330 331 331 330 331 332 331 330 330 329 328 329 329 330 329 328 326 325 327 326 327 327 327 328 327 325 321 318 318 319 322 328 329 328 330 333 333 334 334 333 333 333 332 330 328
330 330 329 329 328 329 329 329 328 330 331 331 333 331 332 334 330 330 328 327 327 329 329 329 331 331 330 330 332 332 332 332 331 329 330 329 329 329 329 329 330 330 331 330 331 330 330 329 330 329 330 329 330 330 328 329 329 328 326 327 325 324 324 324 324 323 323 323 318 319 320 319 319 325 330 330 331 332 331 331 332 332 332 331 327
330 328 327 328 328 328 328 326 328 330 329 330 331 330 332 332 329 327 323 327 325 330 327 332 330 333 328 329 331 330 331 330 332 329 329 328 329 329 329 329 330 331 330 329 329 329 329 329 330 330 329 329 328 328 328 328 328 327 326 326 324 324 322 320 320 322 321 319 319 319 321 322 319 323 325 329 328 329 330 331 330 330 330 329 327
Wind_Speed
4 2 5 9 7 9 11 14 16 15 13 12 10 10 12 12 12 11 12 15 14 15 14 15 15 14 13 13 15 15 15 15 14 14 14 14 14 15 15 15 14 14 14 13 14 14 13 13 14 15 14 14 14 14 15 15 15 15 14 14 14 14 14 15 17 19 18 16 17 18 17 15 15 15 14 15 13 13 13 16 15 12 8 10 14
3 4 5 8 11 10 14 17 15 12 8 10 9 10 10 12 10 13 14 14 14 15 15 15 15 13 13 14 15 15 14 13 13 13 13 13 13 14 15 15 14 14 14 14 14 13 13 15 15 14 14 13 13 13 13 14 14 13 13 12 12 12 13 13 13 15 18 17 17 17 16 15 15 14 15 13 11 11 15 15 16 9 6 13 15
6 5 4 7 11 11 16 15 14 12 15 17 15 10 11 11 13 14 14 14 15 16 16 15 14 14 14 13 14 14 14 13 13 13 12 12 12 13 13 14 14 14 13 13 13 14 15 15 15 15 15 14 12 11 12 13 14 14 11 11 11 10 11 12 13 13 15 17 18 17 17 16 14 15 15 16 16 15 16 15 15 14 8 14 13
6 5 4 8 12 13 15 14 16 17 15 16 14 13 14 13 13 15 14 16 15 14 14 14 14 12 13 13 14 13 13 13 13 12 11 12 12 13 14 13 13 13 13 14 15 14 14 14 14 15 14 14 13 12 12 11 12 11 10 9 9 10 10 9 10 11 14 16 17 14 7 7 10 12 14 14 15 15 15 15 14 12 11 12 14
6 5 5 6 9 13 15 17 17 15 15 15 14 14 15 17 19 20 17 15 14 13 13 14 14 13 12 14 13 13 13 13 13 12 11 11 11 12 13 13 13 12 13 13 14 14 13 13 14 15 14 14 14 13 11 12 12 11 9 8 8 7 8 7 8 9 11 12 6 8 7 8 8 12 13 14 15 15 15 15 15 15 15 16 15
8 6 5 6 10 12 18 17 15 13 14 15 15 14 13 14 15 14 13 8 11 12 12 13 13 13 13 13 12 12 12 12 12 11 11 11 11 12 13 13 12 11 13 14 13 13 14 14 13 13 14 14 14 13 11 11 12 11 6 7 7 6 4 6 5 7 8 5 5 1 9 9 9 8 14 13 14 15 14 13 13 13 15 15 15
7 6 6 8 9 12 16 14 13 13 13 14 14 14 12 12 12 12 12 11 10 12 12 12 13 12 12 12 12 12 12 11 11 11 11 10 11 13 12 12 12 12 16 14 12 12 13 12 12 11 13 13 13 12 11 10 8 7 4 5 6 3 2 1 3 2 4 3 5 5 8 10 7 7 14 13 12 12 13 14 12 12 14 14 13
6 5 8 8 10 12 13 13 12 11 13 15 14 13 12 12 11 11 10 10 10 10 11 12 12 12 11 12 12 11 11 11 11 11 11 10 10 12 12 12 12 13 13 12 12 12 12 12 12 11 11 11 10 11 10 8 7 5 3 4 4 3 3 3 3 4 6 4 2 6 8 9 8 7 12 12 13 13 12 13 12 12 13 14 13
8 7 5 8 9 12 12 11 11 12 16 15 13 13 12 10 11 11 12 11 11 11 11 11 12 11 11 11 12 11 11 11 11 10 10 11 10 11 12 11 11 12 13 12 12 12 11 11 10 10 10 10 9 8 8 7 5 5 3 3 4 3 5 4 5 5 5 4 7 5 9 9 9 7 9 10 9 10 12 12 12 12 12 11 11
5 3 1 7 8 10 11 12 11 13 15 14 13 13 12 10 11 10 9 8 11 10 9 10 10 11 11 11 11 12 11 11 11 10 10 10 10 11 11 11 12 12 12 12 11 11 11 10 9 9 9 8 8 7 6 5 4 4 4 3 2 5 5 7 6 6 3 8 7 7 7 12 9 8 9 11 11 11 11 13 11 10 9 12 12
4 5 5 8 10 13 13 13 14 14 14 15 14 13 11 10 9 10 8 7 8 10 10 10 10 11 11 11 11 11 11 11 11 11 11 11 10 11 10 11 11 12 11 11 11 11 10 9 8 7 7 6 6 6 5 3 3 3 2 3 3 4 5 6 9 4 6 8 7 5 10 17 8 6 9 10 12 12 14 14 13 12 11 10 12
4 6 8 8 12 13 11 12 14 14 12 14 15 13 12 10 8 7 6 6 6 7 10 11 11 10 10 10 11 10 10 11 11 11 11 11 10 10 11 10 10 10 10 10 10 9 9 8 7 6 5 4 4 5 4 2 2 3 4 4 6 7 8 9 7 7 2 3 9 8 11 11 9 9 11 12 12 12 13 13 13 11 9 12 11
8 7 8 8 9 11 10 12 14 13 14 13 14 13 11 10 8 5 4 6 6 7 9 10 10 10 10 11 11 10 10 10 10 10 10 10 10 9 10 10 10 10 9 9 9 9 8 8 7 6 5 4 4 4 4 1 1 3 5 7 8 8 9 12 8 5 4 5 9 12 12 8 7 13 12 12 10 11 12 12 12 11 10 10 10
7 7 8 8 7 11 11 13 14 13 14 14 15 14 12 12 9 6 2 4 5 7 10 10 11 10 11 11 11 10 10 10 10 9 9 8 8 8 8 9 9 8 7 7 7 8 8 7 8 7 7 6 5 5 5 3 2 3 6 7 9 10 12 11 8 4 3 11 10 11 10 8 7 13 12 11 11 10 11 12 11 12 11 11 10
9 10 8 7 8 8 13 12 13 13 13 13 14 13 11 10 9 6 8 2 5 8 9 10 10 10 10 10 11 10 10 10 9 9 8 8 8 8 8 8 8 7 6 5 5 6 6 7 6 7 6 6 5 6 5 4 3 4 6 8 9 11 12 7 8 2 3 9 10 12 9 8 12 11 11 11 11 11 11 11 10 11 9 11 10
9 10 9 9 8 8 9 11 13 13 13 14 14 13 13 11 9 9 4 6 3 6 7 9 8 9 10 10 10 10 10 9 9 8 8 8 7 7 8 7 7 6 5 4 4 4 5 5 5 5 6 6 7 6 6 5 4 4 7 6 8 9 11 8 6 9 1 10 8 9 9 8 14 11 8 11 12 11 10 9 10 10 8 9 10
8 10 11 10 10 9 8 8 10 13 13 12 12 11 9 8 10 9 4 1 3 5 9 8 5 5 9 9 9 9 10 9 9 8 8 7 7 6 6 6 6 5 4 3 2 2 3 3 4 4 4 4 5 6 6 5 4 6 7 8 8 10 10 10 6 3 3 6 10 9 8 8 13 11 10 11 10 9 8 9 10 10 9 7 6
8 9 11 10 9 9 8 7 7 7 7 9 10 9 9 9 8 6 5 6 7 8 10 6 6 6 9 8 8 8 9 9 9 9 8 7 6 6 5 4 4 4 4 3 1 1 2 2 3 3 3 3 3 4 5 4 4 5 7 8 9 10 11 12 7 2 3 8 9 8 7 11 16 12 10 9 9 9 9 9 9 9 9 8 7
9 10 10 10 10 9 8 6 5 6 7 5 4 6 10 9 7 6 7 4 7 8 10 6 4 7 6 7 6 7 7 8 8 8 9 8 7 6 5 4 3 3 3 3 3 3 2 2 3 3 3 3 3 4 3 3 3 6 8 9 10 10 13 8 7 1 1 7 5 6 7 15 13 14 13 10 9 12 10 9 10 8 7 8 8
7 9 9 7 8 9 7 6 5 6 6 6 5 7 9 8 6 6 6 7 7 8 7 5 2 4 5 6 6 6 6 5 6 6 7 7 8 6 6 5 5 4 4 5 5 4 4 3 3 3 3 4 4 4 5 5 5 6 8 9 9 11 7 5 8 7 7 6 6 5 12 14 12 11 13 11 8 12 9 9 9 10 9 8 8
6 8 8 7 8 7 7 5 5 6 6 7 6 7 7 7 7 6 5 7 7 5 5 4 1 1 3 5 5 3 2 2 2 1 5 4 6 7 6 6 6 5 5 5 6 6 5 5 4 5 5 5 5 5 6 7 8 8 8 9 10 6 6 7 9 4 6 7 7 7 15 13 12 11 11 11 9 10 10 9 8 8 10 9 9
8 7 7 6 6 5 5 4 3 5 5 6 6 5 4 5 5 5 4 5 4 4 4 5 7 7 4 2 1 1 2 2 1 3 0 3 5 7 7 7 6 6 5 6 5 6 7 7 7 7 7 7 6 3 4 7 9 10 10 10 5 5 7 5 5 1 8 7 6 9 14 13 11 11 11 12 10 9 9 10 9 10 9 9 8
9 7 6 7 5 4 4 4 5 5 6 7 5 4 2 3 2 1 2 2 1 2 4 4 2 4 8 5 1 1 3 3 3 4 3 4 4 8 7 7 7 7 7 6 6 7 8 8 8 9 9 8 4 4 4 5 5 11 9 6 3 5 7 3 3 4 6 6 5 14 13 12 11 10 11 12 10 9 9 9 9 10 9 9 9
10 9 6 4 5 4 4 3 4 5 5 4 3 3 2 3 1 1 2 1 2 2 4 1 2 3 6 6 4 3 3 3 6 7 6 4 4 7 8 7 8 8 8 6 7 7 9 9 10 10 7 5 4 5 5 2 5 4 5 5 5 5 6 1 3 1 7 8 7 15 14 11 10 9 9 10 12 11 11 10 10 10 10 10 10
7 10 9 5 6 4 3 4 5 5 5 4 2 2 2 2 2 3 2 0 1 1 2 2 2 3 5 8 5 3 2 1 1 2 2 2 3 3 4 4 3 5 8 5 5 6 5 6 5 6 5 5 6 7 3 3 2 4 5 5 5 5 4 1 2 4 5 5 8 15 15 12 11 11 11 11 12 12 12 11 11 11 11 11 11
6 7 10 12 7 2 5 3 4 4 4 3 2 3 4 3 2 3 2 2 1 2 2 3 4 5 2 7 4 1 1 2 2 2 3 2 3 3 4 4 4 4 6 5 5 5 5 6 6 6 6 7 8 6 4 2 4 3 2 4 4 3 2 0 2 1 3 5 8 16 15 14 12 12 11 12 11 12 12 12 11 12 13 11 11
5 7 6 7 11 11 9 7 5 3 5 2 1 3 3 3 4 5 4 2 2 2 3 2 1 2 4 6 5 2 5 3 4 5 4 4 3 2 2 2 3 3 2 2 1 2 3 3 4 5 6 8 4 3 2 3 4 6 2 1 1 1 2 2 2 2 3 5 8 16 15 14 14 13 12 12 12 12 13 12 13 12 13 12 12
5 6 7 6 5 6 9 11 11 9 7 3 3 4 3 4 3 2 1 3 1 1 2 2 4 2 5 9 10 10 9 6 8 7 5 4 4 4 3 1 3 2 2 1 2 3 4 5 4 7 5 7 6 7 4 8 6 3 5 3 2 2 2 3 2 1 3 2 3 12 15 15 14 14 13 13 12 13 13 14 13 13 14 13 12
7 5 5 5 5 5 5 6 13 11 8 5 3 2 1 1 1 1 2 3 3 3 3 3 2 2 4 13 4 4 7 8 6 5 6 6 6 6 4 4 3 4 3 4 5 3 3 5 5 4 7 10 4 5 8 9 5 4 3 3 2 2 1 1 1 2 3 3 4 2 12 15 15 14 14 14 14 14 14 15 14 14 13 13 13
5 4 4 5 4 4 5 6 7 13 11 5 3 3 2 3 3 4 3 3 3 4 3 4 3 1 8 2 1 1 3 2 2 1 0 1 1 3 6 4 3 4 4 3 4 4 3 4 4 7 7 2 4 2 3 3 4 2 2 2 2 1 0 1 1 3 4 2 1 4 8 10 15 15 15 14 15 15 15 15 15 14 14 14 14
3 3 4 4 3 4 5 6 6 7 12 10 1 1 4 5 4 3 4 3 4 3 2 3 6 7 2 1 2 2 1 2 3 3 2 2 1 2 2 5 7 5 4 4 5 5 4 5 7 7 4 2 3 1 2 2 3 3 2 3 2 2 1 2 1 2 7 6 4 4 11 14 13 16 15 15 15 16 15 15 16 15 15 14 14
3 2 4 4 4 5 5 6 5 5 5 7 9 7 6 6 7 6 5 6 7 6 7 5 1 2 1 2 2 1 3 2 1 2 3 3 2 1 2 1 1 1 6 8 8 8 9 10 8 4 3 2 5 4 2 2 2 4 4 4 2 1 3 3 3 2 3 3 3 4 5 7 14 14 16 16 16 16 16 17 16 16 15 15 15
1 3 4 4 4 4 4 4 4 4 5 5 2 2 1 2 2 3 1 2 1 3 1 2 1 2 4 1 1 3 2 3 2 2 2 3 3 2 1 2 2 3 1 2 2 3 3 3 4 3 3 3 3 3 4 2 3 3 4 5 3 4 4 3 2 2 2 4 5 4 5 6 9 12 14 15 17 17 18 17 17 17 16 16 17
3 2 3 3 3 2 2 2 3 4 4 3 3 2 2 1 3 3 2 3 1 1 2 0 3 1 0 4 2 3 4 3 3 4 3 4 4 4 2 2 2 1 1 2 3 3 3 3 3 3 4 4 3 4 5 4 3 2 5 5 5 6 5 4 4 4 3 4 4 5 7 7 6 7 8 13 15 16 18 18 17 17 17 17 17
3 3 3 4 3 2 2 2 2 2 3 2 2 1 1 2 2 2 2 2 3 1 0 2 3 1 2 3 5 4 3 3 3 3 3 3 4 4 4 3 1 1 0 3 3 2 3 4 4 3 3 2 3 4 4 4 2 5 7 7 7 8 6 5 4 5 5 5 5 6 4 5 6 4 6 7 10 14 15 16 17 18 18 18 19
4 3 3 4 3 3 2 3 2 2 2 2 2 2 1 1 1 3 2 2 3 2 2 3 2 3 4 5 5 3 3 3 3 3 4 4 4 4 4 4 4 1 1 3 2 2 3 4 3 5 5 5 5 4 3 3 3 3 3 6 5 6 7 6 6 6 5 5 7 9 8 7 6 5 6 5 6 9 16 17 16 18 18 19 19
4 4 4 3 4 3 3 2 2 2 2 2 2 2 2 1 0 2 2 2 2 4 4 3 4 3 5 5 4 4 3 3 3 3 3 3 4 4 4 5 5 4 3 2 3 3 3 2 2 2 2 4 6 7 5 5 3 2 1 3 3 5 5 6 6 6 5 7 6 6 6 4 7 7 5 6 5 6 14 20 18 19 18 19 18
4 3 2 3 3 2 2 2 2 2 1 2 2 1 2 1 2 1 1 1 1 3 3 2 3 4 4 3 3 3 3 4 3 3 2 3 3 4 4 4 4 5 5 4 4 4 3 1 2 2 2 2 3 4 4 4 4 3 1 1 6 5 3 3 4 5 5 5 6 6 4 5 6 7 6 6 7 6 6 13 21 20 20 19 18
2 3 3 3 2 2 3 2 2 2 1 2 1 2 1 2 3 2 1 3 2 3 4 4 4 5 3 3 3 3 3 3 3 2 2 3 3 4 4 5 3 3 4 4 3 4 4 4 3 4 3 4 3 3 4 4 3 3 3 2 2 3 3 3 3 3 4 4 4 5 11 10 9 8 7 8 7 7 7 4 8 10 12 21 19
3 2 3 3 3 3 2 1 1 1 1 3 4 4 4 3 2 1 3 1 2 3 3 3 3 4 3 4 3 3 2 2 3 2 2 2 3 3 4 4 5 4 3 4 4 4 5 6 5 5 5 4 4 3 3 3 3 3 3 4 4 4 4 4 4 4 5 5 4 3 4 8 11 13 15 13 9 8 8 6 6 8 8 13 20
5 5 4 3 3 3 2 3 2 3 2 2 3 4 5 4 0 1 2 3 2 1 4 3 3 4 3 2 3 3 3 3 3 2 1 2 2 3 4 5 5 5 6 6 6 7 5 4 4 4 5 5 3 3 3 3 4 4 5 5 5 4 4 4 5 4 3 3 3 4 4 3 3 3 3 4 4 5 4 3 4 3 6 6 10
6 5 4 4 3 3 3 2 2 1 2 2 2 4 3 3 2 3 4 4 4 3 4 2 2 1 0 1 1 4 4 4 5 5 7 3 4 4 3 3 3 3 3 4 3 4 4 5 4 3 2 4 4 5 4 3 2 3 6 4 5 5 7 6 3 4 3 2 3 4 3 2 3 1 1 1 7 7 5 3 7 8 6 5 3
5 4 4 4 3 3 3 2 2 2 2 1 2 3 2 2 2 2 3 1 4 1 1 3 2 2 2 4 4 3 4 4 5 6 4 5 5 5 4 3 2 1 2 3 3 3 3 4 5 5 5 3 4 3 4 1 2 3 5 5 3 3 3 1 2 1 2 1 1 2 2 3 3 2 2 1 3 3 3 6 10 10 10 10 10
4 4 4 3 3 3 3 2 1 2 2 2 2 1 2 1 1 2 2 3 3 2 2 3 4 3 5 3 4 3 5 3 4 4 3 3 4 4 4 4 5 5 4 3 4 4 3 3 4 5 4 5 4 5 6 6 4 4 4 5 5 3 4 2 8 1 2 3 3 3 1 2 3 2 2 2 3 10 12 11 9 6 6 5 2
5 5 4 4 3 3 2 2 2 2 2 2 0 1 2 3 3 4 3 3 3 3 3 2 2 5 4 3 4 4 2 3 3 5 5 4 3 3 4 4 4 5 5 5 5 5 5 4 4 3 4 5 6 4 5 4 5 3 2 4 3 2 3 6 7 5 1 2 2 0 1 1 2 4 4 9 10 7 5 7 7 7 8 6 5
6 5 4 4 3 3 3 2 2 1 2 1 1 2 2 3 3 3 3 2 4 4 3 2 4 3 4 2 3 3 3 4 4 5 5 5 5 4 5 5 4 6 5 4 4 4 5 6 6 5 5 5 5 5 5 5 3 4 1 2 1 2 5 6 5 3 8 5 4 5 4 7 7 3 10 10 8 6 7 8 8 8 7 5 3
6 5 5 4 4 3 3 3 3 2 2 2 1 1 2 2 2 2 2 2 2 3 2 1 3 2 2 3 2 3 4 4 3 4 5 5 5 5 5 5 5 4 3 4 6 7 6 6 6 7 6 6 5 5 5 5 5 3 4 3 3 3 4 3 3 5 5 4 5 4 6 6 4 7 9 8 7 7 6 6 7 6 7 6 6
5 6 5 4 4 4 4 4 2 3 2 2 1 1 2 2 2 2 2 2 2 0 2 4 3 2 2 2 3 3 3 4 4 6 5 6 5 5 5 5 5 5 6 6 5 4 4 5 6 5 6 7 7 6 5 5 6 6 7 6 7 6 5 3 4 3 3 5 6 6 5 4 7 9 8 8 7 5 6 6 8 9 8 9 8
6 6 5 4 4 4 4 4 3 3 2 2 2 1 2 1 2 1 1 1 2 2 1 4 3 2 1 2 2 3 3 3 5 5 5 6 5 5 5 5 4 5 5 5 5 5 6 6 6 6 6 5 4 5 5 6 5 5 5 5 4 5 5 4 5 7 3 2 3 5 6 4 9 8 5 5 4 4 6 7 7 8 8 8 8
7 6 5 4 5 4 4 4 4 3 2 2 2 2 2 1 2 1 1 2 3 2 3 3 2 2 2 3 2 3 3 4 4 6 6 6 6 6 6 5 5 7 5 4 4 5 6 6 6 5 4 4 4 4 4 4 4 4 5 4 5 6 5 4 5 6 3 3 4 5 5 6 6 3 5 6 2 5 6 3 5 7 8 8 7
7 7 5 5 5 5 4 5 4 3 3 3 2 3 2 2 2 2 1 1 1 1 2 2 2 1 3 2 2 2 3 4 4 5 5 6 5 5 4 5 5 5 5 5 6 5 5 5 5 4 6 6 5 4 4 5 4 5 6 6 5 6 4 6 6 6 5 3 6 5 5 5 5 2 3 6 5 4 7 6 6 7 8 7 7
Wind_Direction
211 142 83 72 76 83 67 67 59 45 17 21 64 78 77 83 85 83 83 83 84 84 84 86 86 82 79 82 82 81 81 81 81 83 84 89 88 86 87 85 81 77 78 81 82 80 84 83 79 72 74 77 78 80 79 77 82 83 77 79 85 90 93 92 96 98 97 92 90 89 89 85 80 74 89 100 98 96 86 85 84 80 75 79 84
151 104 65 54 51 71 77 75 83 91 67 55 19 67 80 86 82 82 84 85 83 82 83 82 79 79 83 82 82 81 80 80 84 86 88 87 88 87 84 84 85 84 85 83 84 84 82 79 80 77 72 73 77 81 79 79 85 85 85 87 86 91 97 103 104 111 109 108 98 89 84 79 78 78 75 89 110 90 91 91 91 89 89 86 82
125 96 87 68 58 70 87 93 96 79 64 52 26 32 70 78 79 80 81 81 78 79 80 76 76 78 76 78 79 81 81 81 82 83 91 94 94 93 93 93 89 91 91 93 93 88 81 80 78 76 74 71 73 79 82 82 78 81 88 91 91 91 97 94 101 103 104 104 101 94 87 84 81 82 79 81 79 78 77 77 83 98 98 88 82
121 114 107 90 70 76 92 95 84 75 69 66 63 30 31 50 69 76 77 73 72 78 82 81 83 84 85 79 78 81 82 84 82 90 95 99 100 100 100 96 94 90 92 94 88 87 88 87 83 78 76 74 76 76 80 85 85 87 92 92 88 93 94 102 108 113 122 120 116 110 96 89 88 87 88 85 85 84 85 86 87 88 96 100 97
114 117 109 102 81 80 86 84 86 83 82 71 67 54 54 58 56 48 45 66 76 76 79 84 87 86 79 76 77 79 85 87 91 91 92 95 97 98 99 97 96 97 97 91 92 95 99 97 91 84 79 77 76 79 84 94 92 93 94 98 98 96 95 95 107 118 131 143 81 72 92 87 78 82 85 85 84 83 80 84 90 90 82 80 89
127 121 110 92 81 77 81 85 89 94 96 94 88 81 73 73 81 94 96 79 77 76 79 83 86 81 78 79 81 84 88 90 92 94 98 99 105 108 102 100 100 102 102 99 101 99 84 78 84 81 78 75 76 79 77 80 90 100 110 100 90 96 103 113 123 138 140 214 262 132 109 103 94 91 89 89 83 80 86 94 95 95 97 94 85
113 108 113 89 76 81 86 90 96 99 95 97 93 92 86 83 97 107 108 103 90 85 87 90 89 86 81 84 88 93 91 93 94 92 93 101 106 104 109 111 107 101 92 102 104 101 97 92 87 86 82 77 76 77 79 79 77 79 94 89 105 104 91 127 124 175 208 230 237 119 97 100 100 96 94 88 90 95 94 93 91 92 98 96 93
62 43 61 75 82 91 97 103 104 99 97 96 100 94 94 104 103 116 118 100 89 91 100 98 92 89 88 86 94 92 92 95 103 104 104 100 102 105 108 107 103 99 96 97 99 101 98 96 89 85 84 81 78 76 76 81 88 97 75 57 45 42 355 327 324 316 272 250 141 100 99 100 106 105 106 104 109 114 108 101 103 100 96 98 98
38 22 52 87 87 96 103 101 96 98 95 102 98 95 98 103 100 112 112 105 99 99 102 103 102 97 90 92 97 94 96 96 94 97 102 106 107 112 114 112 103 102 104 106 103 100 101 98 91 86 84 81 79 73 71 73 80 78 52 27 25 354 336 310 299 290 281 239 104 105 115 116 112 109 98 87 96 101 104 104 94 87 90 87 82
89 100 358 86 99 104 95 85 90 99 100 99 95 96 99 106 109 107 97 94 96 100 102 106 106 103 99 101 96 96 96 99 100 102 107 105 111 111 114 116 114 106 103 104 106 102 99 95 87 81 80 80 80 75 68 60 60 64 53 17 338 330 298 310 300 277 237 98 111 119 127 121 111 101 102 100 89 82 100 99 95 93 86 78 85
113 99 102 87 95 89 89 92 98 97 97 100 96 91 94 95 102 105 99 95 94 107 114 112 107 103 102 102 99 99 100 103 107 107 109 111 115 116 116 115 110 107 104 101 96 92 89 85 81 76 75 84 85 81 75 55 32 27 2 3 330 298 298 300 301 279 243 140 129 134 94 95 88 91 108 108 100 100 98 100 98 94 97 101 94
91 108 96 101 91 84 91 104 100 99 99 101 100 91 87 89 89 96 102 112 116 111 119 119 116 109 102 99 99 97 98 102 107 111 111 115 117 114 110 100 98 100 101 96 93 91 87 79 73 77 89 91 97 95 87 67 9 344 341 321 315 325 315 311 290 282 117 134 119 102 100 99 103 110 116 107 110 101 103 105 102 104 110 100 98
104 94 94 93 93 95 102 105 99 102 98 94 95 91 89 90 87 84 92 113 113 124 122 121 115 109 106 107 104 101 100 100 104 109 111 111 110 112 112 112 102 102 101 99 93 89 85 82 80 84 90 112 124 125 113 119 327 318 315 311 312 313 317 310 285 233 106 112 92 94 92 95 106 117 115 115 113 111 107 103 103 102 101 105 110
105 100 102 107 109 106 97 94 97 96 95 98 95 85 77 63 39 23 96 122 126 130 129 123 120 112 109 111 111 108 105 101 100 104 109 109 109 109 112 110 108 102 96 95 94 91 89 90 87 79 80 87 111 135 139 146 252 297 307 308 311 318 326 332 332 59 238 98 103 106 104 105 105 106 111 122 121 120 113 109 113 114 116 114 108
104 106 106 104 106 102 89 88 100 98 95 93 99 101 96 91 89 31 346 315 146 142 131 126 120 112 109 109 109 107 103 100 100 103 108 107 106 109 109 107 103 99 94 87 85 81 81 88 93 89 85 87 102 120 142 157 193 269 290 303 310 321 328 323 318 290 105 102 94 99 97 100 112 110 119 122 126 128 127 126 124 119 116 116 113
103 105 107 106 107 100 93 96 99 101 96 93 99 102 106 112 116 114 99 284 183 136 110 106 109 114 113 110 109 107 105 102 99 101 105 114 114 114 118 116 122 116 105 97 85 84 84 92 94 96 98 99 103 122 136 155 193 224 261 282 290 296 304 304 311 282 356 106 118 103 108 112 114 116 129 131 138 139 136 131 125 116 120 128 129
111 112 107 103 103 100 92 96 102 98 95 101 104 108 114 121 109 112 107 86 63 61 91 90 82 115 113 106 108 109 109 107 106 106 103 108 116 119 117 128 126 131 128 122 110 99 100 89 96 101 96 100 108 119 136 159 191 226 252 262 279 283 285 297 286 298 325 127 119 112 113 125 128 136 147 144 145 141 137 125 119 128 128 130 132
117 114 108 110 106 101 104 108 106 97 93 87 91 99 98 100 85 74 53 26 30 78 91 101 117 101 85 93 109 115 113 115 114 113 115 106 112 115 121 113 132 135 147 148 153 160 141 125 116 115 115 99 111 120 137 154 214 248 265 280 283 293 305 312 308 274 29 45 99 117 123 134 141 146 135 152 155 145 139 137 138 141 140 145 143
112 107 108 106 107 110 110 108 102 99 96 99 97 96 87 74 58 64 74 48 40 44 77 98 109 92 104 111 112 110 110 117 122 121 122 127 117 124 130 141 142 160 174 185 188 216 214 177 159 157 156 159 146 161 156 166 225 255 282 290 295 308 309 308 282 170 181 87 100 106 119 144 157 150 152 164 173 151 148 149 147 149 153 154 159
110 109 105 104 110 107 107 105 94 96 94 88 85 84 79 86 87 83 67 56 43 41 57 89 79 108 130 126 120 119 121 104 102 125 126 131 147 135 149 152 160 182 191 200 207 215 230 222 210 214 207 198 180 170 187 184 219 245 268 279 291 296 305 290 288 274 104 120 109 110 140 144 152 152 152 164 172 154 160 168 168 163 164 163 166
111 99 98 97 90 96 112 112 105 99 93 81 75 61 74 79 69 65 66 73 72 63 56 55 348 169 161 138 137 131 84 86 27 114 150 152 150 139 157 159 168 175 196 206 219 224 225 229 231 234 246 233 221 207 201 203 202 229 247 257 272 282 263 259 242 176 112 104 108 122 144 149 149 160 163 169 180 169 167 170 169 178 164 167 173
114 104 99 93 86 88 89 93 97 77 68 82 69 64 58 62 58 45 39 59 48 47 48 52 12 325 284 215 181 70 161 130 136 173 96 153 159 160 165 168 173 182 187 209 224 230 233 233 236 240 244 247 247 236 210 213 216 218 226 249 270 269 276 286 331 37 94 112 113 137 148 148 160 163 172 176 179 191 172 170 185 181 182 187 177
117 110 94 96 89 80 62 41 46 52 67 59 58 77 141 84 98 76 42 359 90 97 54 52 108 348 311 267 229 197 174 176 181 176 193 195 180 168 171 181 180 185 196 206 223 231 237 241 241 239 243 249 255 247 219 176 205 218 219 225 241 266 274 309 324 359 103 104 120 147 147 155 165 173 180 176 183 185 180 186 186 188 190 191 192
119 117 109 94 114 120 104 91 80 58 57 56 50 72 21 68 340 99 76 345 8 29 68 63 127 234 259 273 227 223 222 212 198 182 180 180 180 179 182 183 194 193 197 206 214 228 236 243 248 250 249 256 242 236 233 138 195 181 209 216 214 232 255 291 322 308 112 121 137 151 147 153 172 178 187 189 180 188 191 193 195 197 198 197 199
117 119 119 122 100 89 88 93 63 69 73 67 72 68 58 55 299 347 42 197 260 88 97 115 209 188 236 271 240 232 285 266 208 163 182 205 167 191 177 189 198 212 198 211 199 210 210 230 228 234 249 241 234 241 177 173 281 198 204 204 208 227 214 206 208 295 101 115 139 155 153 160 175 183 191 201 195 193 202 201 199 200 207 205 201
97 108 118 133 126 151 115 52 85 108 96 103 174 147 136 108 27 342 300 294 324 105 146 174 188 152 323 285 285 321 319 326 287 206 212 215 188 186 186 189 183 221 195 224 194 210 191 233 207 205 222 237 235 224 136 205 199 249 225 220 205 231 171 117 5 108 97 129 155 158 157 168 179 191 191 200 202 202 200 205 214 204 212 214 215
100 91 90 87 129 143 143 146 110 42 66 290 19 90 120 149 163 201 211 187 217 178 187 194 171 99 119 261 262 343 321 327 268 238 220 202 200 162 185 202 196 199 180 223 272 252 238 246 249 215 217 228 219 308 187 228 224 202 193 238 310 188 84 81 322 358 64 131 164 164 161 172 181 192 203 205 207 206 218 206 211 209 213 216 220
80 78 74 79 80 98 127 137 130 132 130 179 140 117 161 180 180 185 164 168 178 275 240 176 190 163 149 229 179 176 205 190 227 208 223 194 192 173 192 206 199 232 168 167 267 254 251 259 288 280 250 263 224 208 77 300 253 201 185 176 198 191 114 141 195 95 49 28 158 174 167 173 185 191 200 209 214 215 215 217 219 218 210 218 220
65 59 75 85 72 71 86 101 117 118 119 163 139 129 123 95 178 235 155 211 219 201 211 213 187 195 244 241 177 180 173 197 189 179 168 182 180 173 177 182 183 205 150 196 226 206 235 242 235 252 236 230 205 184 178 187 216 229 180 184 168 101 123 150 149 106 78 31 49 259 187 178 184 193 200 208 212 216 218 220 221 224 226 217 220
63 70 83 79 67 69 77 78 87 116 131 142 140 133 153 189 196 190 199 215 218 220 211 223 193 174 248 259 358 84 331 3 321 314 354 110 166 161 161 201 216 176 193 185 220 194 225 266 268 269 254 242 292 195 176 168 196 195 197 123 53 356 54 316 152 136 107 76 160 190 229 204 189 191 199 208 213 217 220 221 225 224 226 226 220
40 50 90 78 84 74 54 51 59 84 117 125 275 167 178 184 208 192 211 209 223 223 222 243 228 210 206 310 33 320 336 24 3 342 316 347 216 181 195 180 187 184 209 206 237 239 251 259 233 227 256 274 257 214 237 203 199 203 132 107 145 190 276 245 256 144 135 172 168 149 184 222 218 195 195 203 211 217 220 223 226 228 229 231 230
37 18 63 68 74 66 61 44 57 57 70 109 151 167 191 184 180 195 205 206 203 215 220 216 326 113 71 341 1 4 344 20 34 333 331 322 303 45 328 304 335 249 185 173 195 214 218 215 221 231 225 211 235 236 201 243 239 185 164 125 194 180 192 229 223 134 141 134 157 180 200 213 228 218 196 199 207 214 218 223 225 228 231 232 232
69 58 82 86 77 61 54 48 48 50 61 74 83 120 69 142 113 159 191 262 204 196 145 148 216 233 147 124 284 7 359 359 358 333 345 308 321 320 226 292 258 240 340 333 288 243 257 246 237 232 247 248 258 253 259 226 219 204 160 137 189 232 228 215 214 193 174 172 163 185 225 217 212 225 220 204 203 210 217 220 224 227 230 232 233
131 102 116 97 82 56 47 62 45 62 61 66 54 65 302 260 158 143 115 310 245 335 79 143 228 185 330 111 42 33 6 350 353 5 348 332 321 309 283 230 251 324 0 283 269 275 267 290 299 280 221 215 237 242 214 226 240 84 90 169 187 214 218 218 206 193 196 179 208 191 214 221 218 207 213 225 215 209 212 216 220 224 227 229 231
139 148 136 121 110 87 116 79 61 84 92 103 85 51 273 341 56 38 91 305 287 118 160 28 320 16 32 84 51 40 11 351 353 354 346 318 302 302 300 275 228 98 323 304 292 290 311 300 284 272 307 290 251 239 241 254 196 211 157 168 195 202 204 212 196 207 199 186 186 239 231 216 229 229 211 211 223 224 219 216 218 220 222 225 228
153 153 144 150 135 152 133 108 132 112 119 115 133 102 54 315 61 54 4 326 323 348 55 4 343 10 22 57 33 34 354 357 358 355 357 336 324 316 310 336 354 80 202 256 295 297 294 294 329 338 335 319 313 301 279 243 224 235 170 190 189 190 182 194 201 209 216 190 183 201 215 214 222 225 243 216 201 216 220 224 223 223 223 223 225
144 173 165 147 137 113 110 113 101 87 53 72 73 108 31 34 172 105 0 355 12 348 24 312 42 25 31 34 17 21 357 359 10 345 355 338 324 325 318 331 340 353 346 337 309 283 263 293 344 314 337 320 315 312 313 315 312 325 334 296 213 195 192 199 174 210 221 227 207 184 160 235 240 218 203 252 240 213 217 217 221 223 225 225 225
177 152 147 133 128 121 102 86 79 52 40 24 36 280 133 298 67 46 61 332 100 42 331 326 47 54 44 15 15 19 328 16 357 351 334 332 324 319 331 335 350 352 338 332 321 313 293 258 295 310 303 289 288 290 301 323 326 310 200 254 302 305 277 238 206 197 210 215 200 129 115 214 252 259 252 233 235 226 210 216 219 222 224 227 227
180 152 147 142 121 107 87 81 42 73 225 221 193 219 175 178 159 170 105 344 102 67 359 24 19 50 32 357 31 2 349 351 338 332 15 328 326 334 329 334 333 336 322 312 302 311 322 341 354 336 329 316 297 296 294 289 306 332 329 289 266 256 251 267 265 223 233 243 237 206 169 180 205 237 250 249 240 231 230 204 210 216 224 225 224
175 183 158 159 128 124 141 100 110 309 317 243 228 227 190 169 66 119 113 347 56 91 66 23 353 59 4 12 6 352 0 338 323 349 356 6 322 320 321 338 339 330 327 328 345 339 356 2 352 340 323 311 308 304 309 339 337 317 301 282 253 251 259 241 231 227 222 231 252 235 211 174 181 191 211 218 215 214 216 219 201 212 215 219 222
188 186 179 158 147 159 143 148 169 236 274 26 34 17 15 4 110 142 165 176 106 118 113 100 28 57 351 21 359 321 349 332 319 319 23 341 330 340 357 356 1 354 356 353 348 341 340 349 336 334 325 318 314 330 330 11 339 301 271 258 262 247 252 228 242 258 266 262 244 243 234 243 241 231 207 230 226 232 216 97 281 340 258 231 213
176 185 175 156 175 131 139 128 229 53 36 38 19 46 19 24 333 39 334 74 35 21 62 22 91 97 159 1 352 28 345 359 335 11 342 20 12 18 2 341 2 8 353 340 338 322 345 335 319 304 319 336 332 332 311 337 302 330 329 327 316 284 250 241 231 232 215 230 268 277 315 323 327 324 69 13 286 279 273 196 153 223 239 283 307
166 189 176 158 138 155 137 176 143 148 108 352 17 58 31 53 12 25 21 16 123 100 120 172 177 153 119 42 14 33 351 360 1 359 10 16 16 357 351 349 357 6 353 335 329 357 316 305 325 346 332 338 305 285 320 24 329 329 304 288 294 318 349 331 205 320 355 313 303 287 223 198 200 228 271 335 317 312 328 8 35 15 358 358 354
178 188 179 161 166 172 171 138 169 98 73 56 146 123 85 320 64 351 61 18 28 61 339 56 349 99 80 44 53 350 33 355 15 13 24 14 12 5 3 346 0 4 0 343 343 333 338 352 343 342 343 322 338 341 346 348 342 6 331 355 315 323 307 26 8 323 227 234 224 237 327 11 351 332 54 320 349 14 15 20 38 37 22 36 51
196 181 182 175 195 156 142 143 159 107 87 123 27 258 190 199 181 189 193 178 105 60 34 2 352 33 40 23 54 1 49 357 20 23 29 30 27 21 6 1 19 15 12 3 358 3 349 332 321 322 343 347 333 341 339 335 334 9 344 329 328 313 1 357 352 296 313 327 318 29 165 240 333 34 19 25 30 36 27 34 44 46 46 25 29
197 165 191 181 178 132 150 174 137 114 119 56 17 43 21 13 359 25 37 18 90 61 42 344 16 24 40 357 56 3 19 26 20 40 27 29 26 19 16 10 28 30 9 11 353 3 352 349 351 7 354 346 336 336 336 338 340 335 337 216 224 288 314 335 342 333 337 321 350 326 28 31 20 31 46 47 33 24 36 46 56 53 57 62 48
189 161 181 177 155 154 162 182 161 159 150 143 183 287 69 23 37 60 47 62 13 102 211 117 83 22 31 34 15 55 11 29 25 30 35 34 28 22 26 21 30 35 354 20 12 14 8 359 2 1 353 342 348 337 340 331 338 325 348 349 335 322 316 322 333 326 322 345 344 337 56 29 35 52 61 41 38 38 42 64 65 60 55 55 47
177 160 171 171 158 162 178 187 168 144 145 143 241 105 92 98 97 57 15 51 38 203 243 113 99 59 33 38 356 65 30 33 26 31 29 35 25 22 21 28 32 27 16 32 29 14 17 17 20 22 14 19 7 9 352 358 3 355 1 0 353 343 330 326 307 313 326 327 332 1 11 28 31 45 56 53 41 46 50 52 64 60 57 53 46
164 164 167 175 162 167 185 202 153 140 141 157 133 58 54 74 31 71 108 44 336 7 5 65 65 13 74 44 47 23 47 30 34 30 26 36 26 27 19 22 31 31 25 31 24 16 27 23 17 24 20 21 13 0 17 13 21 357 341 1 347 353 333 352 9 31 19 339 336 352 345 3 72 13 36 72 49 51 50 44 65 76 80 69 55
152 162 167 167 171 175 193 194 144 153 148 160 134 139 128 81 98 23 40 97 328 59 354 43 56 24 21 51 45 27 28 42 44 37 22 30 29 24 20 21 27 36 31 18 20 29 36 22 24 28 20 20 31 27 23 12 8 30 359 343 8 7 5 6 13 6 0 12 352 338 351 7 26 26 24 49 19 53 60 42 71 75 74 72 61
151 164 164 175 174 188 192 181 170 145 153 151 165 148 146 128 108 111 67 74 165 81 335 131 63 152 58 23 48 63 35 43 34 52 25 30 27 23 15 17 34 44 27 30 32 32 32 25 30 34 28 28 27 28 23 22 23 29 20 21 20 24 31 12 7 2 10 2 344 348 348 15 35 22 5 28 25 39 67 60 60 75 75 72 73